| time (UTC) | temp F | wind direction | speed knots | gust knots | rain 1hr in | rain 24hr in | rain mn in | humidity % | barometer mb |
| 20260506014058 | 64 | 0.0 | 0.0 | 0.00 | 0.00 | 0.00 | 6 | 984.0 | |
| 20260506012713 | 65 | 0.0 | 0.0 | 0.00 | 0.00 | 0.00 | 6 | 983.9 | |
| 20260506011242 | 64 | 0.0 | 0.0 | 0.00 | 0.00 | 0.00 | 6 | 984.0 | |
| 20260506005808 | 65 | 0.0 | 0.0 | 0.00 | 0.00 | 0.00 | 6 | 984.0 | |
| 20260506004458 | 65 | 0.0 | 0.0 | 0.00 | 0.00 | 0.00 | 6 | 984.0 | |
| 20260506003238 | 65 | 0.0 | 0.0 | 0.00 | 0.00 | 0.00 | 6 | 984.3 | |
| 20260506001758 | 65 | 0.0 | 0.0 | 0.00 | 0.00 | 0.00 | 6 | 984.4 | |
| 20260506000333 | 65 | 0.0 | 0.0 | 0.00 | 0.00 | 0.00 | 6 | 984.6 | |
| 20260505234938 | 65 | 0.0 | 0.0 | 0.00 | 0.00 | 0.00 | 6 | 984.8 | |
| 20260505233448 | 65 | 0.0 | 0.0 | 0.00 | 0.00 | 0.00 | 6 | 984.8 | |
| 20260505232002 | 66 | 0.0 | 0.0 | 0.00 | 0.00 | 0.00 | 6 | 984.7 | |
| 20260505230743 | 66 | 0.0 | 0.0 | 0.00 | 0.00 | 0.00 | 6 | 984.8 | |
| 20260505225313 | 66 | 0.0 | 0.0 | 0.00 | 0.00 | 0.00 | 6 | 984.7 | |
| 20260505224038 | 66 | 0.0 | 0.0 | 0.00 | 0.00 | 0.00 | 6 | 984.6 | |
| 20260505222732 | 67 | 0.0 | 0.0 | 0.00 | 0.00 | 0.00 | 6 | 984.6 | |
| 20260505221413 | 67 | 0.0 | 0.0 | 0.00 | 0.00 | 0.00 | 6 | 984.8 | |
| 20260505220118 | 67 | 0.0 | 0.0 | 0.00 | 0.00 | 0.00 | 6 | 984.8 | |
| 20260505214833 | 67 | 0.0 | 0.0 | 0.00 | 0.00 | 0.00 | 6 | 984.7 | |
| 20260505213454 | 67 | 0.0 | 0.0 | 0.00 | 0.00 | 0.00 | 6 | 984.8 | |
| 20260505212133 | 66 | 0.0 | 0.0 | 0.00 | 0.00 | 0.00 | 6 | 984.7 | |
| 20260505210723 | 67 | 0.0 | 0.0 | 0.00 | 0.00 | 0.00 | 6 | 984.7 | |
| 20260505205433 | 66 | 0.0 | 0.0 | 0.00 | 0.00 | 0.00 | 6 | 984.7 | |
| 20260505204053 | 68 | 0.0 | 0.0 | 0.00 | 0.00 | 0.00 | 6 | 984.6 | |
| 20260505202622 | 68 | 0.0 | 0.0 | 0.00 | 0.00 | 0.00 | 6 | 984.6 | |
| 20260505201248 | 68 | 0.0 | 0.0 | 0.00 | 0.00 | 0.00 | 6 | 984.6 | |
| 20260505195933 | 68 | 0.0 | 0.0 | 0.00 | 0.00 | 0.00 | 6 | 984.4 | |
| 20260505194502 | 69 | 0.0 | 0.0 | 0.00 | 0.00 | 0.00 | 6 | 984.3 | |
| 20260505193225 | 69 | 0.0 | 0.0 | 0.00 | 0.00 | 0.00 | 6 | 984.1 | |
| 20260505192018 | 69 | 0.0 | 0.0 | 0.00 | 0.00 | 0.00 | 6 | 984.1 | |
| 20260505190658 | 69 | 0.0 | 0.0 | 0.00 | 0.00 | 0.00 | 6 | 984.0 | |
| 20260505185305 | 69 | 0.0 | 0.0 | 0.00 | 0.00 | 0.00 | 6 | 984.0 | |
| 20260505183902 | 69 | 0.0 | 0.0 | 0.00 | 0.00 | 0.00 | 6 | 984.0 | |
| 20260505182408 | 69 | 0.0 | 0.0 | 0.00 | 0.00 | 0.00 | 6 | 983.7 | |
| 20260505181038 | 69 | 0.0 | 0.0 | 0.00 | 0.00 | 0.00 | 6 | 983.9 | |
| 20260505175653 | 70 | 0.0 | 0.0 | 0.00 | 0.00 | 0.00 | 6 | 983.9 | |
| 20260505174442 | 70 | 0.0 | 0.0 | 0.00 | 0.00 | 0.00 | 6 | 984.0 | |
| 20260505172958 | 70 | 0.0 | 0.0 | 0.00 | 0.00 | 0.00 | 6 | 984.0 | |
| 20260505171558 | 69 | 0.0 | 0.0 | 0.00 | 0.00 | 0.00 | 6 | 983.9 | |
| 20260505170242 | 70 | 0.0 | 0.0 | 0.00 | 0.00 | 0.00 | 6 | 983.8 | |
| 20260505164838 | 70 | 0.0 | 0.0 | 0.00 | 0.00 | 0.00 | 6 | 983.8 | |
| 20260505163433 | 70 | 0.0 | 0.0 | 0.00 | 0.00 | 0.00 | 6 | 983.9 | |
| 20260505162133 | 69 | 0.0 | 0.0 | 0.00 | 0.00 | 0.00 | 7 | 983.9 | |
| 20260505160733 | 68 | 0.0 | 0.0 | 0.00 | 0.00 | 0.00 | 7 | 984.1 | |
| 20260505152618 | 67 | 0.0 | 0.0 | 0.00 | 0.00 | 0.00 | 7 | 984.5 | |
| 20260505151308 | 67 | 0.0 | 0.0 | 0.00 | 0.00 | 0.00 | 7 | 984.5 | |
| 20260505123858 | 71 | 0.0 | 0.0 | 0.00 | 0.00 | 0.00 | 4 | 984.3 | |
| 20260505122542 | 73 | 0.0 | 0.0 | 0.00 | 0.00 | 0.00 | 4 | 984.2 | |
| 20260505121343 | 73 | 0.0 | 0.0 | 0.00 | 0.00 | 0.00 | 4 | 984.1 | |
| 20260505115853 | 74 | 0.0 | 0.0 | 0.00 | 0.00 | 0.00 | 4 | 984.1 | |
| 20260505114618 | 76 | 0.0 | 0.0 | 0.00 | 0.00 | 0.00 | 4 | 984.1 | |
| 20260505113333 | 76 | 0.0 | 0.0 | 0.00 | 0.00 | 0.00 | 4 | 984.1 | |
| 20260505112133 | 77 | 0.0 | 0.0 | 0.00 | 0.00 | 0.00 | 4 | 984.2 | |
| 20260505110747 | 75 | 0.0 | 0.0 | 0.00 | 0.00 | 0.00 | 4 | 984.4 | |
| 20260505101320 | 74 | 0.0 | 0.0 | 0.00 | 0.00 | 0.00 | 4 | 984.9 | |
| 20260505095943 | 73 | 0.0 | 0.0 | 0.00 | 0.00 | 0.00 | 4 | 985.0 | |
| 20260505094718 | 73 | 0.0 | 0.0 | 0.00 | 0.00 | 0.00 | 4 | 985.1 | |
| 20260505093358 | 73 | 0.0 | 0.0 | 0.00 | 0.00 | 0.00 | 4 | 985.2 | |
| 20260505092008 | 71 | 0.0 | 0.0 | 0.00 | 0.00 | 0.00 | 5 | 985.4 | |
| 20260505090742 | 70 | 0.0 | 0.0 | 0.00 | 0.00 | 0.00 | 5 | 985.5 | |
| 20260505085328 | 70 | 0.0 | 0.0 | 0.00 | 0.00 | 0.00 | 5 | 985.6 | |
| 20260505083848 | 69 | 0.0 | 0.0 | 0.00 | 0.00 | 0.00 | 5 | 985.7 | |
| 20260505082455 | 71 | 0.0 | 0.0 | 0.00 | 0.00 | 0.00 | 5 | 985.6 | |
| 20260505081118 | 69 | 0.0 | 0.0 | 0.00 | 0.00 | 0.00 | 5 | 985.7 | |
| 20260505075722 | 70 | 0.0 | 0.0 | 0.00 | 0.00 | 0.00 | 5 | 985.7 | |
| 20260505074320 | 70 | 0.0 | 0.0 | 0.00 | 0.00 | 0.00 | 5 | 985.8 | |
| 20260505072907 | 69 | 0.0 | 0.0 | 0.00 | 0.00 | 0.00 | 5 | 985.9 | |
| 20260505071638 | 70 | 0.0 | 0.0 | 0.00 | 0.00 | 0.00 | 5 | 986.0 | |
| 20260505070207 | 69 | 0.0 | 0.0 | 0.00 | 0.00 | 0.00 | 5 | 986.0 | |
| 20260505064913 | 68 | 0.0 | 0.0 | 0.00 | 0.00 | 0.00 | 5 | 986.1 | |
| 20260505063638 | 67 | 0.0 | 0.0 | 0.00 | 0.00 | 0.00 | 5 | 986.2 | |
| 20260505062413 | 66 | 0.0 | 0.0 | 0.00 | 0.00 | 0.00 | 5 | 986.4 | |
| 20260505061011 | 66 | 0.0 | 0.0 | 0.00 | 0.00 | 0.00 | 5 | 986.5 | |
| 20260505055543 | 69 | 0.0 | 0.0 | 0.00 | 0.00 | 0.00 | 5 | 986.5 | |
| 20260505054223 | 68 | 0.0 | 0.0 | 0.00 | 0.00 | 0.00 | 5 | 986.5 | |
| 20260505052927 | 69 | 0.0 | 0.0 | 0.00 | 0.00 | 0.00 | 5 | 986.4 | |
| 20260505051653 | 68 | 0.0 | 0.0 | 0.00 | 0.00 | 0.00 | 5 | 986.2 | |
| 20260505050227 | 68 | 0.0 | 0.0 | 0.00 | 0.00 | 0.00 | 5 | 986.2 | |
| 20260505040758 | 68 | 0.0 | 0.0 | 0.00 | 0.00 | 0.00 | 5 | 986.3 | |
| 20260505035307 | 68 | 0.0 | 0.0 | 0.00 | 0.00 | 0.00 | 5 | 986.4 | |
| 20260505033853 | 68 | 0.0 | 0.0 | 0.00 | 0.00 | 0.00 | 5 | 986.5 | |
| 20260505032423 | 69 | 0.0 | 0.0 | 0.00 | 0.00 | 0.00 | 5 | 986.5 | |
| 20260505031033 | 69 | 0.0 | 0.0 | 0.00 | 0.00 | 0.00 | 5 | 986.6 | |
| 20260505025558 | 69 | 0.0 | 0.0 | 0.00 | 0.00 | 0.00 | 5 | 986.7 | |
| 20260505024253 | 69 | 0.0 | 0.0 | 0.00 | 0.00 | 0.00 | 5 | 986.9 | |
| 20260505022818 | 70 | 0.0 | 0.0 | 0.00 | 0.00 | 0.00 | 5 | 987.1 | |
| 20260505021548 | 70 | 0.0 | 0.0 | 0.00 | 0.00 | 0.00 | 5 | 987.2 | |
| 20260505020133 | 69 | 0.0 | 0.0 | 0.00 | 0.00 | 0.00 | 5 | 987.4 | |
| 20260505014923 | 70 | 0.0 | 0.0 | 0.00 | 0.00 | 0.00 | 5 | 987.4 |